ONEWEB-0063, 45448

Orbit data source: Space-Track

ONEWEB-0063, 45448 is a payload satellite owned by One Web (UK) in LEO that was launched on Sat, 21 Mar 2020 UTC via a SOYUZ-2-1B launch vehicle from the Tyuratam Missile And Space Complex (TTMTR). Payload-class satellites include a variety of spacecraft equipped with specific instruments for various scientific and technological missions. These include communications satellites like Starlink; space stations such as the ISS; scientific satellites like the Hubble; Earth observation satellites from companies like Planet Labs, Umbra, and HawkEye 360; GPS; miniature CubeSats for education and research; and military/defense satellites.

Loading next visibility...
Identifier
45448, 2020-020AA
Orbit
LEO
Last TLE update
20 hours ago
Origin
Manufacturer
One Web
Mission
Operational Commercial Communications
Bus & Motor
ARROW, Unknown motor
Mass
148 kg wet, ~140 kg dry
Launch date (UTC)
2020-03-21 (5 years ago)
Launch vehicle
SOYUZ-2-1B
Launch site
Tyuratam Missile And Space Complex (TTMTR)
Object type
Payload
Rocket body
Debris
Shape & HBR
Trap Box + 2 Pan, 5 m
Radar Cross Section
2.957 m², Large (>1 m²)

Expand to show TLE details & history

TLE from 20 hours ago
0 ONEWEB-0063
1 45448U 20020AA  25128.41944953 -.00000436  00000-0 -12658-2 0  9995
2 45448  87.8812 101.7356 0002272  85.8490 274.2897 13.11416093249644
Epoch: 2025-05-08T10:04Z
Definitive object data (Epoch: 2025-05-08T10:04:00.439Z)
Latitude
-0.00007°
Longitude
84.24355°
Altitude
1,220.446 km
Speed
7.244 km/s
True Right ascension
06h 46m 56s
True Declination
0° 00' 00"
Sunlit
Object was in daylight at TLE epoch
Visualization TLE readout
Latitude
-84.35593°
Longitude
62.21136°
Altitude
1,248.027 km
Speed
7.23 km/s
Apparent Right ascension
02h 20m 09s
Apparent Declination
-65° 05' 22"
Sunlit
Object is in daylight
Visualization observer readout
Local Sidereal Time
13:55:22
Azimuth
186.078° SSW
Elevation
-64.574°
Doppler factor
1
Orbital elements
Apogee altitude
1,216.529 km
Perigee altitude
1,213.079 km
Semi-major axis
7,592.941 km
Eccentricity
0.0002272
Inclination
87.8812°
RAAN
101.7356°
Arg. of periapsis
85.849°
True anomaly
274.26374°
Mean anomaly
274.2897°
Eccentric anomaly
274.27672°
Mean motion
3.28041 °/min
BSTAR
-0.0012658
Orbital period
109.74 mins
Loading maneuver chart data...
Loading SW <> Apogee altitude chart data...
Loading historical data...
Loading historical data...
Loading historical data...
Loading historical data...
Loading historical data...
Loading historical data...
Loading historical data...

ONEWEB-0063 Visibility forecast

Observer location: undefined°, undefined°

Span
Click to sort rows by Start time (UTC) header in descending order
Start Az.
Max El. time (UTC)
Max El. Az.
Max El.
End time (UTC)
End Az.
7 mins2025-05-09 08:40:39.128Z41.402° NE2025-05-09 08:44:39.128Z77.145° E15.869°2025-05-09 08:47:39.128Z103.45° ESE
13 mins2025-05-09 10:28:39.128Z357.551° N2025-05-09 10:34:39.128Z316.433° NNW44.633°2025-05-09 10:41:39.128Z184.978° SSW
5 mins2025-05-09 12:21:39.128Z306.999° NW2025-05-09 12:23:39.128Z289.824° WNW13.165°2025-05-09 12:26:39.128Z264.84° W
7 mins2025-05-09 21:01:39.128Z100.575° ESE2025-05-09 21:04:39.128Z71.747° E17.895°2025-05-09 21:08:39.128Z36.326° NE
13 mins2025-05-09 22:47:39.128Z187.269° SSW2025-05-09 22:53:39.128Z282.057° WNW44.051°2025-05-09 23:00:39.128Z357.266° N
|